Flight Track Log - Related Links

Times and Time Zones

All times are in EST time to prevent confusion due to time zone crossing. See the MRA606 flight status page for this flight to view local times or setup timezone preferences in your user account.

Time Position Orientation Groundspeed Altitude Reporting Facility
EST Latitude Longitude Course Direction KTS MPH feet Rate Location/Type
Sat 04:08:13 PM 42.2925 -85.4150 65° Northeast 158 182 3,000  Level Chicago Center
Sat 04:09:15 PM 42.3197 -85.3697 51° Northeast 158 182 3,000  Level Chicago Center
Sat 04:10:16 PM 42.3461 -85.3239 52° Northeast 155 178 3,000  Level Chicago Center
Sat 04:11:00 PM 42.4642 -85.1318 52° Northeast  Level FlightAware Approximate
Sat 04:11:17 PM 42.3717 -85.2742 55° Northeast 160 184 3,000  Level Chicago Center
Sat 04:12:00 PM 42.4935 -85.0799 53° Northeast  Level FlightAware Approximate
Sat 04:12:18 PM 42.3981 -85.2258 54° Northeast 161 185 3,000  Level Chicago Center
Sat 04:13:19 PM 42.4250 -85.1794 52° Northeast 158 182 3,100 49 Climbing Chicago Center
Sat 04:14:20 PM 42.4525 -85.1333 51° Northeast 157 181 3,100  Level Chicago Center
Sat 04:15:22 PM 42.4850 -85.0800 50° Northeast 154 177 3,100  Level Chicago Center
Sat 04:16:23 PM 42.5111 -85.0328 53° Northeast 156 180 3,100 -98 Level Chicago Center
Sat 04:17:24 PM 42.5358 -84.9836 56° Northeast 158 182 2,900 -98 Descending Chicago Center
Sat 04:18:25 PM 42.5617 -84.9372 53° Northeast 156 180 2,900  Level Chicago Center
Sat 04:19:26 PM 42.5878 -84.8914 52° Northeast 155 178 2,900  Level Chicago Center
Sat 04:20:28 PM 42.6144 -84.8444 52° Northeast 156 180 2,900  Level Chicago Center
Sat 04:21:29 PM 42.6397 -84.7956 55° Northeast 157 181 2,900  Level Chicago Center
Sat 04:22:30 PM 42.6664 -84.7431 55° Northeast 157 181 2,900 -148 Level Chicago Center
Sat 04:24:52 PM 42.7186 -84.6067 62° Northeast 165 190 2,400 -236 Descending Cleveland Center
Sat 04:25:53 PM 42.7422 -84.5567 57° Northeast 165 190 2,100 -197 Descending Cleveland Center
Sat 04:26:54 PM 42.7661 -84.5147 52° Northeast 165 190 2,000 -98 Descending Cleveland Center

Login

Don't have an account? Register now (free) for customized features, flight alerts, and more!